Location: Meanaryar
(48.4161°N, 4.7315°W)
Time: 15:15:07
(UTC+00:00)

Cosmos 1092 Rocket - Pass Details

Date: 23 January 2021
Orbit: 954 x 995 km, 83.0° (Epoch: 01 March)

Event Time Altitude Azimuth Distance (km) Brightness Sun altitude
Rises 19:52:54 0° 211° (SSW) 3,650 7.4 -27.8°
Reaches altitude 10° 19:55:34 10° 218° (SW) 2,701 6.7 -28.2°
Maximum altitude 20:01:21 41° 288° (WNW) 1,375 5.2 -29.2°
Drops below altitude 10° 20:07:08 10° 357° (N) 2,699 6.4 -30.1°
Sets 20:09:49 0° 5° (N) 3,647 7.0 -30.6°
